Year,Month,Day,Hour,Minute,Value (Times are PST for temperature in C)
2009,05,17,00,00,13.60
2009,05,17,00,01,13.60
2009,05,17,00,02,13.60
2009,05,17,00,03,13.60
2009,05,17,00,04,13.60
2009,05,17,00,05,13.60
2009,05,17,00,06,13.60
2009,05,17,00,07,13.60
2009,05,17,00,08,13.60
2009,05,17,00,09,13.60
2009,05,17,00,10,13.60
2009,05,17,00,11,13.60
2009,05,17,00,12,13.70
2009,05,17,00,13,13.70
2009,05,17,00,14,13.70
2009,05,17,00,15,13.70
2009,05,17,00,16,13.70
2009,05,17,00,17,13.70
2009,05,17,00,18,13.70
2009,05,17,00,19,13.70
2009,05,17,00,20,13.70
2009,05,17,00,21,13.60
2009,05,17,00,22,13.60
2009,05,17,00,23,13.60
2009,05,17,00,24,13.60
2009,05,17,00,25,13.60
2009,05,17,00,26,13.60
2009,05,17,00,27,13.60
2009,05,17,00,28,13.50
2009,05,17,00,29,13.50
2009,05,17,00,30,13.60
2009,05,17,00,31,13.60
2009,05,17,00,32,13.60
2009,05,17,00,33,13.60
2009,05,17,00,34,13.60
2009,05,17,00,35,13.60
2009,05,17,00,36,13.60
2009,05,17,00,37,13.60
2009,05,17,00,38,13.60
2009,05,17,00,39,13.60
2009,05,17,00,40,13.60
2009,05,17,00,41,13.70
2009,05,17,00,42,13.70
2009,05,17,00,43,13.70
2009,05,17,00,44,13.70
2009,05,17,00,45,13.80
2009,05,17,00,46,13.80
2009,05,17,00,47,13.80
2009,05,17,00,48,13.80
2009,05,17,00,49,13.80
2009,05,17,00,50,13.80
2009,05,17,00,51,13.80
2009,05,17,00,52,13.90
2009,05,17,00,53,13.90
2009,05,17,00,54,13.80
2009,05,17,00,55,13.80
2009,05,17,00,56,13.90
2009,05,17,00,57,13.90
2009,05,17,00,58,13.90
2009,05,17,00,59,13.90
2009,05,17,01,00,13.90
2009,05,17,01,01,13.90
2009,05,17,01,02,14.00
2009,05,17,01,03,14.00
2009,05,17,01,04,14.10
2009,05,17,01,05,14.20
2009,05,17,01,06,14.20
2009,05,17,01,07,14.20
2009,05,17,01,08,14.20
2009,05,17,01,09,14.10
2009,05,17,01,10,14.10
2009,05,17,01,11,14.00
2009,05,17,01,12,14.00
2009,05,17,01,13,13.90
2009,05,17,01,14,13.90
2009,05,17,01,15,13.90
2009,05,17,01,16,13.80
2009,05,17,01,17,13.80
2009,05,17,01,18,13.80
2009,05,17,01,19,13.80
2009,05,17,01,20,13.80
2009,05,17,01,21,13.80
2009,05,17,01,22,13.90
2009,05,17,01,23,13.90
2009,05,17,01,24,13.90
2009,05,17,01,25,13.90
2009,05,17,01,26,13.90
2009,05,17,01,27,13.90
2009,05,17,01,28,13.90
2009,05,17,01,29,13.90
2009,05,17,01,30,13.90
2009,05,17,01,31,13.90
2009,05,17,01,32,13.90
2009,05,17,01,33,13.90
2009,05,17,01,34,13.90
2009,05,17,01,35,13.90
2009,05,17,01,36,13.90
2009,05,17,01,37,13.90
2009,05,17,01,38,14.00
2009,05,17,01,39,14.00
2009,05,17,01,40,14.00
2009,05,17,01,41,14.00
2009,05,17,01,42,14.00
2009,05,17,01,43,14.10
2009,05,17,01,44,14.10
2009,05,17,01,45,14.10
2009,05,17,01,46,14.10
2009,05,17,01,47,14.10
2009,05,17,01,48,14.10
2009,05,17,01,49,14.10
2009,05,17,01,50,14.10
2009,05,17,01,51,14.10
2009,05,17,01,52,14.10
2009,05,17,01,53,14.10
2009,05,17,01,54,14.10
2009,05,17,01,55,14.10
2009,05,17,01,56,14.10
2009,05,17,01,57,14.10
2009,05,17,01,58,14.00
2009,05,17,01,59,14.00
2009,05,17,02,00,14.00
2009,05,17,02,01,14.00
2009,05,17,02,02,13.90
2009,05,17,02,03,13.90
2009,05,17,02,04,13.90
2009,05,17,02,05,13.90
2009,05,17,02,06,13.90
2009,05,17,02,07,13.90
2009,05,17,02,08,13.80
2009,05,17,02,09,13.80
2009,05,17,02,10,13.80
2009,05,17,02,11,13.80
2009,05,17,02,12,13.90
2009,05,17,02,13,13.90
2009,05,17,02,14,13.90
2009,05,17,02,15,13.90
2009,05,17,02,16,13.90
2009,05,17,02,17,13.90
2009,05,17,02,18,13.90
2009,05,17,02,19,13.90
2009,05,17,02,20,13.90
2009,05,17,02,21,13.80
2009,05,17,02,22,13.80
2009,05,17,02,23,13.80
2009,05,17,02,24,13.80
2009,05,17,02,25,13.80
2009,05,17,02,26,13.80
2009,05,17,02,27,13.70
2009,05,17,02,28,13.70
2009,05,17,02,29,13.70
2009,05,17,02,30,13.70
2009,05,17,02,31,13.70
2009,05,17,02,32,13.60
2009,05,17,02,33,13.60
2009,05,17,02,34,13.50
2009,05,17,02,35,13.50
2009,05,17,02,36,13.40
2009,05,17,02,37,13.40
2009,05,17,02,38,13.50
2009,05,17,02,39,13.50
2009,05,17,02,40,13.60
2009,05,17,02,41,13.60
2009,05,17,02,42,13.70
2009,05,17,02,43,13.70
2009,05,17,02,44,13.70
2009,05,17,02,45,13.70
2009,05,17,02,46,13.70
2009,05,17,02,47,13.70
2009,05,17,02,48,13.70
2009,05,17,02,49,13.70
2009,05,17,02,50,13.70
2009,05,17,02,51,13.70
2009,05,17,02,52,13.70
2009,05,17,02,53,13.60
2009,05,17,02,54,13.60
2009,05,17,02,55,13.60
2009,05,17,02,56,13.60
2009,05,17,02,57,13.60
2009,05,17,02,58,13.60
2009,05,17,02,59,13.60
2009,05,17,03,00,13.50
2009,05,17,03,01,13.50
2009,05,17,03,02,13.50
2009,05,17,03,03,13.40
2009,05,17,03,04,13.40
2009,05,17,03,05,13.30
2009,05,17,03,06,13.30
2009,05,17,03,07,13.20
2009,05,17,03,08,13.20
2009,05,17,03,09,13.10
2009,05,17,03,10,13.10
2009,05,17,03,11,13.00
2009,05,17,03,12,12.90
2009,05,17,03,13,12.90
2009,05,17,03,14,12.90
2009,05,17,03,15,12.90
2009,05,17,03,16,12.80
2009,05,17,03,17,12.80
2009,05,17,03,18,12.80
2009,05,17,03,19,12.80
2009,05,17,03,20,12.80
2009,05,17,03,21,12.80
2009,05,17,03,22,12.80
2009,05,17,03,23,12.80
2009,05,17,03,24,12.80
2009,05,17,03,25,12.90
2009,05,17,03,26,12.90
2009,05,17,03,27,12.90
2009,05,17,03,28,12.90
2009,05,17,03,29,12.90
2009,05,17,03,30,12.90
2009,05,17,03,31,12.90
2009,05,17,03,32,13.00
2009,05,17,03,33,13.00
2009,05,17,03,34,13.00
2009,05,17,03,35,13.00
2009,05,17,03,36,13.00
2009,05,17,03,37,13.10
2009,05,17,03,38,13.10
2009,05,17,03,39,13.10
2009,05,17,03,40,13.10
2009,05,17,03,41,13.20
2009,05,17,03,42,13.20
2009,05,17,03,43,13.20
2009,05,17,03,44,13.20
2009,05,17,03,45,13.20
2009,05,17,03,46,13.20
2009,05,17,03,47,13.20
2009,05,17,03,48,13.20
2009,05,17,03,49,13.20
2009,05,17,03,50,13.20
2009,05,17,03,51,13.30
2009,05,17,03,52,13.30
2009,05,17,03,53,13.30
2009,05,17,03,54,13.30
2009,05,17,03,55,13.30
2009,05,17,03,56,13.30
2009,05,17,03,57,13.30
2009,05,17,03,58,13.30
2009,05,17,03,59,13.30
2009,05,17,04,00,13.30
2009,05,17,04,01,13.30
2009,05,17,04,02,13.20
2009,05,17,04,03,13.20
2009,05,17,04,04,13.20
2009,05,17,04,05,13.20
2009,05,17,04,06,13.20
2009,05,17,04,07,13.20
2009,05,17,04,08,13.10
2009,05,17,04,09,13.10
2009,05,17,04,10,13.10
2009,05,17,04,11,13.10
2009,05,17,04,12,13.10
2009,05,17,04,13,13.00
2009,05,17,04,14,13.00
2009,05,17,04,15,13.00
2009,05,17,04,16,13.00
2009,05,17,04,17,12.90
2009,05,17,04,18,12.90
2009,05,17,04,19,12.90
2009,05,17,04,20,12.90
2009,05,17,04,21,12.90
2009,05,17,04,22,12.90
2009,05,17,04,23,12.90
2009,05,17,04,24,12.90
2009,05,17,04,25,12.90
2009,05,17,04,26,12.90
2009,05,17,04,27,12.90
2009,05,17,04,28,12.80
2009,05,17,04,29,12.80
2009,05,17,04,30,12.80
2009,05,17,04,31,12.80
2009,05,17,04,32,12.90
2009,05,17,04,33,12.90
2009,05,17,04,34,13.00
2009,05,17,04,35,13.00
2009,05,17,04,36,13.10
2009,05,17,04,37,13.10
2009,05,17,04,38,13.10
2009,05,17,04,39,13.10
2009,05,17,04,40,13.20
2009,05,17,04,41,13.20
2009,05,17,04,42,13.20
2009,05,17,04,43,13.20
2009,05,17,04,44,13.20
2009,05,17,04,45,13.20
2009,05,17,04,46,13.10
2009,05,17,04,47,13.10
2009,05,17,04,48,13.10
2009,05,17,04,49,13.10
2009,05,17,04,50,13.10
2009,05,17,04,51,13.10
2009,05,17,04,52,13.00
2009,05,17,04,53,13.00
2009,05,17,04,54,12.90
2009,05,17,04,55,12.90
2009,05,17,04,56,12.90
2009,05,17,04,57,12.90
2009,05,17,04,58,12.80
2009,05,17,04,59,12.80
2009,05,17,05,00,12.70
2009,05,17,05,01,12.70
2009,05,17,05,02,12.70
2009,05,17,05,03,12.60
2009,05,17,05,04,12.60
2009,05,17,05,05,12.60
2009,05,17,05,06,12.60
2009,05,17,05,07,12.60
2009,05,17,05,08,12.60
2009,05,17,05,09,12.60
2009,05,17,05,10,12.60
2009,05,17,05,11,12.60
2009,05,17,05,12,12.50
2009,05,17,05,13,12.50
2009,05,17,05,14,12.50
2009,05,17,05,15,12.50
2009,05,17,05,16,12.50
2009,05,17,05,17,12.50
2009,05,17,05,18,12.50
2009,05,17,05,19,12.40
2009,05,17,05,20,12.40
2009,05,17,05,21,12.40
2009,05,17,05,22,12.40
2009,05,17,05,23,12.40
2009,05,17,05,24,12.30
2009,05,17,05,25,12.30
2009,05,17,05,26,12.20
2009,05,17,05,27,12.20
2009,05,17,05,28,12.20
2009,05,17,05,29,12.20
2009,05,17,05,30,12.20
2009,05,17,05,31,12.10
2009,05,17,05,32,12.10
2009,05,17,05,33,12.10
2009,05,17,05,34,12.00
2009,05,17,05,35,12.00
2009,05,17,05,36,11.90
2009,05,17,05,37,11.90
2009,05,17,05,38,11.80
2009,05,17,05,39,11.80
2009,05,17,05,40,11.80
2009,05,17,05,41,11.80
2009,05,17,05,42,11.70
2009,05,17,05,43,11.70
2009,05,17,05,44,11.70
2009,05,17,05,45,11.70
2009,05,17,05,46,11.70
2009,05,17,05,47,11.60
2009,05,17,05,48,11.60
2009,05,17,05,49,11.60
2009,05,17,05,50,11.60
2009,05,17,05,51,11.60
2009,05,17,05,52,11.60
2009,05,17,05,53,11.60
2009,05,17,05,54,11.60
2009,05,17,05,55,11.60
2009,05,17,05,56,11.60
2009,05,17,05,57,11.60
2009,05,17,05,58,11.60
2009,05,17,05,59,11.60
2009,05,17,06,00,11.70
2009,05,17,06,01,11.70
2009,05,17,06,02,11.70
2009,05,17,06,03,11.80
2009,05,17,06,04,11.80
2009,05,17,06,05,11.80
2009,05,17,06,06,11.80
2009,05,17,06,07,11.90
2009,05,17,06,08,11.90
2009,05,17,06,09,11.90
2009,05,17,06,10,11.90
2009,05,17,06,11,11.90
2009,05,17,06,12,11.90
2009,05,17,06,13,11.90
2009,05,17,06,14,11.90
2009,05,17,06,15,11.90
2009,05,17,06,16,12.00
2009,05,17,06,17,12.00
2009,05,17,06,18,12.00
2009,05,17,06,19,12.10
2009,05,17,06,20,12.10
2009,05,17,06,21,12.10
2009,05,17,06,22,12.10
2009,05,17,06,23,12.10
2009,05,17,06,24,12.10
2009,05,17,06,25,12.10
2009,05,17,06,26,12.20
2009,05,17,06,27,12.20
2009,05,17,06,28,12.20
2009,05,17,06,29,12.20
2009,05,17,06,30,12.20
2009,05,17,06,31,12.20
2009,05,17,06,32,12.20
2009,05,17,06,33,12.20
2009,05,17,06,34,12.30
2009,05,17,06,35,12.30
2009,05,17,06,36,12.30
2009,05,17,06,37,12.30
2009,05,17,06,38,12.30
2009,05,17,06,39,12.40
2009,05,17,06,40,12.40
2009,05,17,06,41,12.40
2009,05,17,06,42,12.50
2009,05,17,06,43,12.50
2009,05,17,06,44,12.60
2009,05,17,06,45,12.60
2009,05,17,06,46,12.70
2009,05,17,06,47,12.70
2009,05,17,06,48,12.80
2009,05,17,06,49,12.80
2009,05,17,06,50,12.80
2009,05,17,06,51,12.90
2009,05,17,06,52,12.90
2009,05,17,06,53,13.00
2009,05,17,06,54,13.00
2009,05,17,06,55,13.10
2009,05,17,06,56,13.10
2009,05,17,06,57,13.10
2009,05,17,06,58,13.10
2009,05,17,06,59,13.20
2009,05,17,07,00,13.20
2009,05,17,07,01,13.20
2009,05,17,07,02,13.20
2009,05,17,07,03,13.20
2009,05,17,07,04,13.30
2009,05,17,07,05,13.30
2009,05,17,07,06,13.30
2009,05,17,07,07,13.30
2009,05,17,07,08,13.30
2009,05,17,07,09,13.30
2009,05,17,07,10,13.30
2009,05,17,07,11,13.30
2009,05,17,07,12,13.30
2009,05,17,07,13,13.30
2009,05,17,07,14,13.30
2009,05,17,07,15,13.30
2009,05,17,07,16,13.30
2009,05,17,07,17,13.30
2009,05,17,07,18,13.30
2009,05,17,07,19,13.30
2009,05,17,07,20,13.30
2009,05,17,07,21,13.30
2009,05,17,07,22,13.30
2009,05,17,07,23,13.40
2009,05,17,07,24,13.40
2009,05,17,07,25,13.40
2009,05,17,07,26,13.40
2009,05,17,07,27,13.40
2009,05,17,07,28,13.40
2009,05,17,07,29,13.40
2009,05,17,07,30,13.40
2009,05,17,07,31,13.30
2009,05,17,07,32,13.30
2009,05,17,07,33,13.30
2009,05,17,07,34,13.30
2009,05,17,07,35,13.30
2009,05,17,07,36,13.30
2009,05,17,07,37,13.30
2009,05,17,07,38,13.40
2009,05,17,07,39,13.40
2009,05,17,07,40,13.40
2009,05,17,07,41,13.40
2009,05,17,07,42,13.40
2009,05,17,07,43,13.40
2009,05,17,07,44,13.40
2009,05,17,07,45,13.40
2009,05,17,07,46,13.40
2009,05,17,07,47,13.50
2009,05,17,07,48,13.50
2009,05,17,07,49,13.50
2009,05,17,07,50,13.60
2009,05,17,07,51,13.60
2009,05,17,07,52,13.60
2009,05,17,07,53,13.70
2009,05,17,07,54,13.70
2009,05,17,07,55,13.70
2009,05,17,07,56,13.80
2009,05,17,07,57,13.80
2009,05,17,07,58,13.80
2009,05,17,07,59,13.80
2009,05,17,08,00,13.80
2009,05,17,08,01,13.80
2009,05,17,08,02,13.90
2009,05,17,08,03,13.90
2009,05,17,08,04,14.00
2009,05,17,08,05,14.00
2009,05,17,08,06,14.10
2009,05,17,08,07,14.20
2009,05,17,08,08,14.20
2009,05,17,08,09,14.30
2009,05,17,08,10,14.40
2009,05,17,08,11,14.40
2009,05,17,08,12,14.40
2009,05,17,08,13,14.50
2009,05,17,08,14,14.50
2009,05,17,08,15,14.60
2009,05,17,08,16,14.70
2009,05,17,08,17,14.80
2009,05,17,08,18,14.80
2009,05,17,08,19,15.00
2009,05,17,08,20,15.00
2009,05,17,08,21,15.00
2009,05,17,08,22,15.10
2009,05,17,08,23,15.20
2009,05,17,08,24,15.30
2009,05,17,08,25,15.30
2009,05,17,08,26,15.30
2009,05,17,08,27,15.30
2009,05,17,08,28,15.40
2009,05,17,08,29,15.40
2009,05,17,08,30,15.50
2009,05,17,08,31,15.60
2009,05,17,08,32,15.60
2009,05,17,08,33,15.60
2009,05,17,08,34,15.60
2009,05,17,08,35,15.60
2009,05,17,08,36,15.60
2009,05,17,08,37,15.60
2009,05,17,08,38,15.60
2009,05,17,08,39,15.60
2009,05,17,08,40,15.70
2009,05,17,08,41,15.70
2009,05,17,08,42,15.80
2009,05,17,08,43,15.90
2009,05,17,08,44,16.00
2009,05,17,08,45,16.00
2009,05,17,08,46,16.10
2009,05,17,08,47,16.20
2009,05,17,08,48,16.20
2009,05,17,08,49,16.20
2009,05,17,08,50,16.20
2009,05,17,08,51,16.20
2009,05,17,08,52,16.20
2009,05,17,08,53,16.30
2009,05,17,08,54,16.30
2009,05,17,08,55,16.40
2009,05,17,08,56,16.40
2009,05,17,08,57,16.40
2009,05,17,08,58,16.50
2009,05,17,08,59,16.50
2009,05,17,09,00,16.50
2009,05,17,09,01,16.60
2009,05,17,09,02,16.60
2009,05,17,09,03,16.50
2009,05,17,09,04,16.50
2009,05,17,09,05,16.40
2009,05,17,09,06,16.40
2009,05,17,09,07,16.30
2009,05,17,09,08,16.30
2009,05,17,09,09,16.30
2009,05,17,09,10,16.30
2009,05,17,09,11,16.20
2009,05,17,09,12,16.20
2009,05,17,09,13,16.30
2009,05,17,09,14,16.30
2009,05,17,09,15,16.30
2009,05,17,09,16,16.40
2009,05,17,09,17,16.40
2009,05,17,09,18,16.40
2009,05,17,09,19,16.40
2009,05,17,09,20,16.50
2009,05,17,09,21,16.60
2009,05,17,09,22,16.60
2009,05,17,09,23,16.60
2009,05,17,09,24,16.70
2009,05,17,09,25,16.80
2009,05,17,09,26,16.80
2009,05,17,09,27,16.90
2009,05,17,09,28,16.90
2009,05,17,09,29,17.00
2009,05,17,09,30,17.10
2009,05,17,09,31,17.10
2009,05,17,09,32,17.10
2009,05,17,09,33,17.20
2009,05,17,09,34,17.30
2009,05,17,09,35,17.40
2009,05,17,09,36,17.40
2009,05,17,09,37,17.40
2009,05,17,09,38,17.40
2009,05,17,09,39,17.30
2009,05,17,09,40,17.30
2009,05,17,09,41,17.40
2009,05,17,09,42,17.40
2009,05,17,09,43,17.40
2009,05,17,09,44,17.40
2009,05,17,09,45,17.50
2009,05,17,09,46,17.60
2009,05,17,09,47,17.60
2009,05,17,09,48,17.60
2009,05,17,09,49,17.70
2009,05,17,09,50,17.70
2009,05,17,09,51,17.60
2009,05,17,09,52,17.60
2009,05,17,09,53,17.60
2009,05,17,09,54,17.60
2009,05,17,09,55,17.60
2009,05,17,09,56,17.70
2009,05,17,09,57,17.80
2009,05,17,09,58,17.80
2009,05,17,09,59,17.80
2009,05,17,10,00,17.80
2009,05,17,10,01,17.80
2009,05,17,10,02,17.80
2009,05,17,10,03,17.80
2009,05,17,10,04,17.80
2009,05,17,10,05,17.90
2009,05,17,10,06,18.00
2009,05,17,10,07,18.20
2009,05,17,10,08,18.20
2009,05,17,10,09,18.10
2009,05,17,10,10,18.10
2009,05,17,10,11,18.10
2009,05,17,10,12,18.10
2009,05,17,10,13,18.10
2009,05,17,10,14,18.10
2009,05,17,10,15,18.10
2009,05,17,10,16,18.20
2009,05,17,10,17,18.20
2009,05,17,10,18,18.10
2009,05,17,10,19,17.90
2009,05,17,10,20,17.90
2009,05,17,10,21,17.90
2009,05,17,10,22,17.90
2009,05,17,10,23,17.90
2009,05,17,10,24,17.90
2009,05,17,10,25,17.90
2009,05,17,10,26,17.90
2009,05,17,10,27,17.90
2009,05,17,10,28,17.80
2009,05,17,10,29,17.60
2009,05,17,10,30,17.60
2009,05,17,10,31,17.60
2009,05,17,10,32,17.70
2009,05,17,10,33,17.70
2009,05,17,10,34,17.70
2009,05,17,10,35,17.70
2009,05,17,10,36,17.80
2009,05,17,10,37,17.90
2009,05,17,10,38,17.90
2009,05,17,10,39,17.90
2009,05,17,10,40,17.90
2009,05,17,10,41,17.80
2009,05,17,10,42,17.70
2009,05,17,10,43,17.60
2009,05,17,10,44,17.60
2009,05,17,10,45,17.50
2009,05,17,10,46,17.40
2009,05,17,10,47,17.40
2009,05,17,10,48,17.40
2009,05,17,10,49,17.30
2009,05,17,10,50,17.40
2009,05,17,10,51,17.50
2009,05,17,10,52,17.50
2009,05,17,10,53,17.60
2009,05,17,10,54,17.70
2009,05,17,10,55,17.80
2009,05,17,10,56,17.90
2009,05,17,10,57,17.80
2009,05,17,10,58,17.80
2009,05,17,10,59,17.80
2009,05,17,11,00,17.70
2009,05,17,11,01,17.80
2009,05,17,11,02,17.80
2009,05,17,11,03,17.80
2009,05,17,11,04,17.80
2009,05,17,11,05,17.80
2009,05,17,11,06,17.90
2009,05,17,11,07,17.90
2009,05,17,11,08,17.90
2009,05,17,11,09,17.90
2009,05,17,11,10,17.90
2009,05,17,11,11,17.90
2009,05,17,11,12,17.70
2009,05,17,11,13,17.70
2009,05,17,11,14,17.70
2009,05,17,11,15,17.80
2009,05,17,11,16,17.90
2009,05,17,11,17,17.90
2009,05,17,11,18,17.90
2009,05,17,11,19,18.00
2009,05,17,11,20,18.00
2009,05,17,11,21,18.10
2009,05,17,11,22,18.10
2009,05,17,11,23,18.00
2009,05,17,11,24,17.90
2009,05,17,11,25,17.90
2009,05,17,11,26,17.90
2009,05,17,11,27,17.90
2009,05,17,11,28,17.80
2009,05,17,11,29,17.80
2009,05,17,11,30,17.80
2009,05,17,11,31,17.80
2009,05,17,11,32,17.90
2009,05,17,11,33,18.00
2009,05,17,11,34,18.10
2009,05,17,11,35,18.10
2009,05,17,11,36,18.20
2009,05,17,11,37,18.30
2009,05,17,11,38,18.50
2009,05,17,11,39,18.50
2009,05,17,11,40,18.60
2009,05,17,11,41,18.60
2009,05,17,11,42,18.70
2009,05,17,11,43,18.80
2009,05,17,11,44,18.70
2009,05,17,11,45,18.70
2009,05,17,11,46,18.80
2009,05,17,11,47,18.90
2009,05,17,11,48,18.90
2009,05,17,11,49,18.80
2009,05,17,11,50,18.80
2009,05,17,11,51,18.80
2009,05,17,11,52,18.90
2009,05,17,11,53,18.90
2009,05,17,11,54,18.90
2009,05,17,11,55,18.90
2009,05,17,11,56,18.80
2009,05,17,11,57,18.90
2009,05,17,11,58,18.80
2009,05,17,11,59,18.80
2009,05,17,12,00,18.80
2009,05,17,12,01,18.90
2009,05,17,12,02,19.00
2009,05,17,12,03,19.10
2009,05,17,12,04,19.20
2009,05,17,12,05,19.20
2009,05,17,12,06,19.30
2009,05,17,12,07,19.30
2009,05,17,12,08,19.40
2009,05,17,12,09,19.40
2009,05,17,12,10,19.40
2009,05,17,12,11,19.40
2009,05,17,12,12,19.40
2009,05,17,12,13,19.30
2009,05,17,12,14,19.30
2009,05,17,12,15,19.20
2009,05,17,12,16,19.30
2009,05,17,12,17,19.30
2009,05,17,12,18,19.30
2009,05,17,12,19,19.40
2009,05,17,12,20,19.50
2009,05,17,12,21,19.60
2009,05,17,12,22,19.60
2009,05,17,12,23,19.60
2009,05,17,12,24,19.70
2009,05,17,12,25,19.70
2009,05,17,12,26,19.70
2009,05,17,12,27,19.70
2009,05,17,12,28,19.60
2009,05,17,12,29,19.50
2009,05,17,12,30,19.40
2009,05,17,12,31,19.30
2009,05,17,12,32,19.30
2009,05,17,12,33,19.30
2009,05,17,12,34,19.30
2009,05,17,12,35,19.40
2009,05,17,12,36,19.50
2009,05,17,12,37,19.60
2009,05,17,12,38,19.70
2009,05,17,12,39,19.90
2009,05,17,12,40,20.00
2009,05,17,12,41,20.00
2009,05,17,12,42,20.10
2009,05,17,12,43,20.00
2009,05,17,12,44,19.80
2009,05,17,12,45,19.50
2009,05,17,12,46,19.30
2009,05,17,12,47,19.20
2009,05,17,12,48,19.10
2009,05,17,12,49,19.10
2009,05,17,12,50,19.20
2009,05,17,12,51,19.20
2009,05,17,12,52,19.20
2009,05,17,12,53,19.10
2009,05,17,12,54,19.00
2009,05,17,12,55,19.00
2009,05,17,12,56,19.10
2009,05,17,12,57,19.30
2009,05,17,12,58,19.40
2009,05,17,12,59,19.50
2009,05,17,13,00,19.60
2009,05,17,13,01,19.80
2009,05,17,13,02,19.80
2009,05,17,13,03,19.80
2009,05,17,13,04,19.80
2009,05,17,13,05,19.80
2009,05,17,13,06,19.80
2009,05,17,13,07,19.80
2009,05,17,13,08,19.90
2009,05,17,13,09,19.90
2009,05,17,13,10,19.90
2009,05,17,13,11,19.90
2009,05,17,13,12,19.80
2009,05,17,13,13,19.80
2009,05,17,13,14,19.70
2009,05,17,13,15,19.60
2009,05,17,13,16,19.70
2009,05,17,13,17,19.70
2009,05,17,13,18,19.80
2009,05,17,13,19,19.90
2009,05,17,13,20,20.00
2009,05,17,13,21,20.00
2009,05,17,13,22,20.10
2009,05,17,13,23,20.10
2009,05,17,13,24,20.10
2009,05,17,13,25,20.10
2009,05,17,13,26,20.00
2009,05,17,13,27,19.90
2009,05,17,13,28,19.80
2009,05,17,13,29,19.80
2009,05,17,13,30,19.70
2009,05,17,13,31,19.70
2009,05,17,13,32,19.70
2009,05,17,13,33,19.70
2009,05,17,13,34,19.70
2009,05,17,13,35,19.70
2009,05,17,13,36,19.70
2009,05,17,13,37,19.80
2009,05,17,13,38,19.80
2009,05,17,13,39,19.80
2009,05,17,13,40,19.80
2009,05,17,13,41,19.80
2009,05,17,13,42,19.70
2009,05,17,13,43,19.70
2009,05,17,13,44,19.70
2009,05,17,13,45,19.80
2009,05,17,13,46,19.90
2009,05,17,13,47,20.00
2009,05,17,13,48,20.00
2009,05,17,13,49,20.10
2009,05,17,13,50,20.20
2009,05,17,13,51,20.30
2009,05,17,13,52,20.30
2009,05,17,13,53,20.30
2009,05,17,13,54,20.20
2009,05,17,13,55,20.20
2009,05,17,13,56,20.20
2009,05,17,13,57,20.20
2009,05,17,13,58,20.30
2009,05,17,13,59,20.20
2009,05,17,14,00,20.10
2009,05,17,14,01,20.00
2009,05,17,14,02,19.90
2009,05,17,14,03,20.00
2009,05,17,14,04,20.00
2009,05,17,14,05,20.00
2009,05,17,14,06,20.00
2009,05,17,14,07,20.10
2009,05,17,14,08,20.20
2009,05,17,14,09,20.20
2009,05,17,14,10,20.10
2009,05,17,14,11,20.00
2009,05,17,14,12,20.00
2009,05,17,14,13,20.00
2009,05,17,14,14,20.00
2009,05,17,14,15,20.00
2009,05,17,14,16,20.00
2009,05,17,14,17,20.00
2009,05,17,14,18,20.00
2009,05,17,14,19,20.00
2009,05,17,14,20,20.10
2009,05,17,14,21,20.20
2009,05,17,14,22,20.30
2009,05,17,14,23,20.40
2009,05,17,14,24,20.50
2009,05,17,14,25,20.60
2009,05,17,14,26,20.70
2009,05,17,14,27,20.70
2009,05,17,14,28,20.70
2009,05,17,14,29,20.70
2009,05,17,14,30,20.70
2009,05,17,14,31,20.80
2009,05,17,14,32,20.90
2009,05,17,14,33,21.00
2009,05,17,14,34,21.10
2009,05,17,14,35,21.00
2009,05,17,14,36,21.00
2009,05,17,14,37,20.90
2009,05,17,14,38,20.80
2009,05,17,14,39,20.60
2009,05,17,14,40,20.50
2009,05,17,14,41,20.40
2009,05,17,14,42,20.40
2009,05,17,14,43,20.40
2009,05,17,14,44,20.30
2009,05,17,14,45,20.20
2009,05,17,14,46,20.30
2009,05,17,14,47,20.30
2009,05,17,14,48,20.40
2009,05,17,14,49,20.50
2009,05,17,14,50,20.60
2009,05,17,14,51,20.60
2009,05,17,14,52,20.70
2009,05,17,14,53,20.80
2009,05,17,14,54,20.80
2009,05,17,14,55,20.70
2009,05,17,14,56,20.70
2009,05,17,14,57,20.60
2009,05,17,14,58,20.50
2009,05,17,14,59,20.50
2009,05,17,15,00,20.40
2009,05,17,15,01,20.40
2009,05,17,15,02,20.50
2009,05,17,15,03,20.60
2009,05,17,15,04,20.60
2009,05,17,15,05,20.70
2009,05,17,15,06,20.80
2009,05,17,15,07,20.80
2009,05,17,15,08,20.70
2009,05,17,15,09,20.60
2009,05,17,15,10,20.60
2009,05,17,15,11,20.60
2009,05,17,15,12,20.60
2009,05,17,15,13,20.50
2009,05,17,15,14,20.50
2009,05,17,15,15,20.50
2009,05,17,15,16,20.40
2009,05,17,15,17,20.40
2009,05,17,15,18,20.30
2009,05,17,15,19,20.30
2009,05,17,15,20,20.40
2009,05,17,15,21,20.50
2009,05,17,15,22,20.60
2009,05,17,15,23,20.70
2009,05,17,15,24,20.60
2009,05,17,15,25,20.60
2009,05,17,15,26,20.40
2009,05,17,15,27,20.40
2009,05,17,15,28,20.40
2009,05,17,15,29,20.50
2009,05,17,15,30,20.70
2009,05,17,15,31,20.70
2009,05,17,15,32,20.70
2009,05,17,15,33,20.60
2009,05,17,15,34,20.70
2009,05,17,15,35,20.70
2009,05,17,15,36,20.70
2009,05,17,15,37,20.60
2009,05,17,15,38,20.60
2009,05,17,15,39,20.70
2009,05,17,15,40,20.70
2009,05,17,15,41,20.80
2009,05,17,15,42,20.80
2009,05,17,15,43,20.90
2009,05,17,15,44,21.00
2009,05,17,15,45,20.90
2009,05,17,15,46,20.80
2009,05,17,15,47,20.80
2009,05,17,15,48,20.80
2009,05,17,15,49,20.80
2009,05,17,15,50,20.90
2009,05,17,15,51,20.90
2009,05,17,15,52,20.90
2009,05,17,15,53,20.90
2009,05,17,15,54,20.90
2009,05,17,15,55,20.90
2009,05,17,15,56,20.90
2009,05,17,15,57,20.80
2009,05,17,15,58,20.80
2009,05,17,15,59,20.80
2009,05,17,16,00,20.90
2009,05,17,16,01,20.90
2009,05,17,16,02,20.90
2009,05,17,16,03,20.80
2009,05,17,16,04,20.80
2009,05,17,16,05,20.80
2009,05,17,16,06,20.80
2009,05,17,16,07,20.80
2009,05,17,16,08,20.80
2009,05,17,16,09,20.90
2009,05,17,16,10,21.00
2009,05,17,16,11,21.20
2009,05,17,16,12,21.20
2009,05,17,16,13,21.20
2009,05,17,16,14,21.20
2009,05,17,16,15,21.20
2009,05,17,16,16,21.20
2009,05,17,16,17,21.20
2009,05,17,16,18,21.00
2009,05,17,16,19,20.90
2009,05,17,16,20,20.80
2009,05,17,16,21,20.70
2009,05,17,16,22,20.70
2009,05,17,16,23,20.60
2009,05,17,16,24,20.40
2009,05,17,16,25,20.40
2009,05,17,16,26,20.30
2009,05,17,16,27,20.30
2009,05,17,16,28,20.30
2009,05,17,16,29,20.30
2009,05,17,16,30,20.40
2009,05,17,16,31,20.40
2009,05,17,16,32,20.50
2009,05,17,16,33,20.50
2009,05,17,16,34,20.50
2009,05,17,16,35,20.50
2009,05,17,16,36,20.60
2009,05,17,16,37,20.60
2009,05,17,16,38,20.70
2009,05,17,16,39,20.80
2009,05,17,16,40,20.80
2009,05,17,16,41,20.90
2009,05,17,16,42,20.90
2009,05,17,16,43,20.80
2009,05,17,16,44,20.70
2009,05,17,16,45,20.70
2009,05,17,16,46,20.60
2009,05,17,16,47,20.50
2009,05,17,16,48,20.40
2009,05,17,16,49,20.40
2009,05,17,16,50,20.40
2009,05,17,16,51,20.40
2009,05,17,16,52,20.40
2009,05,17,16,53,20.40
2009,05,17,16,54,20.30
2009,05,17,16,55,20.30
2009,05,17,16,56,20.20
2009,05,17,16,57,20.20
2009,05,17,16,58,20.20
2009,05,17,16,59,20.20
2009,05,17,17,00,20.20
2009,05,17,17,01,20.20
2009,05,17,17,02,20.20
2009,05,17,17,03,20.20
2009,05,17,17,04,20.30
2009,05,17,17,05,20.30
2009,05,17,17,06,20.40
2009,05,17,17,07,20.40
2009,05,17,17,08,20.40
2009,05,17,17,09,20.40
2009,05,17,17,10,20.40
2009,05,17,17,11,20.50
2009,05,17,17,12,20.50
2009,05,17,17,13,20.60
2009,05,17,17,14,20.60
2009,05,17,17,15,20.60
2009,05,17,17,16,20.50
2009,05,17,17,17,20.40
2009,05,17,17,18,20.40
2009,05,17,17,19,20.30